This is the latest recevied weather packets stored in our database for station/object LX0APE-4. If no packets are shown the sender has not sent any weather packets the latest 10 day(s).
| Time | Temp. | Humidity | Pressure | Rain* | Wind** | Luminosity | Snow |
|---|---|---|---|---|---|---|---|
| 1777567624 | 25.56° C | 15% | 5019.6 hPa | 0 mm | - | - | - |
| 1777567324 | 25° C | 15% | 5019.8 hPa | 0 mm | - | - | - |
| 1777567024 | 24.44° C | 15% | 5019.8 hPa | 0 mm | - | - | - |
| 1777566724 | 24.44° C | 15% | 5019.8 hPa | 0 mm | - | - | - |
| 1777566424 | 26.11° C | 14% | 5020.1 hPa | 0 mm | - | - | - |
| 1777566124 | 27.22° C | 13% | 5020 hPa | 0 mm | - | - | - |
| 1777565824 | 27.78° C | 14% | 5020 hPa | 0 mm | - | - | - |
| 1777565524 | 27.78° C | 14% | 5019.9 hPa | 0 mm | - | - | - |
| 1777565224 | 27.78° C | 14% | 5020.1 hPa | 0 mm | - | - | - |
| 1777564924 | 27.78° C | 14% | 5020 hPa | 0 mm | - | - | - |
| 1777564624 | 27.78° C | 13% | 5019.9 hPa | 0 mm | - | - | - |
| 1777564324 | 27.22° C | 14% | 5020.1 hPa | 0 mm | - | - | - |
| 1777564024 | 27.22° C | 14% | 5020.2 hPa | 0 mm | - | - | - |
| 1777563724 | 27.78° C | 14% | 5020.1 hPa | 0 mm | - | - | - |
| 1777563428 | 27.22° C | 14% | 5020.2 hPa | 0 mm | - | - | - |
| 1777563424 | 27.22° C | 14% | 5020.2 hPa | 0 mm | - | - | - |
| 1777563124 | 27.22° C | 12% | 5020 hPa | 0 mm | - | - | - |
| 1777562824 | 27.22° C | 14% | 5020 hPa | 0 mm | - | - | - |
| 1777562528 | 26.67° C | 14% | 5020.1 hPa | 0 mm | - | - | - |
| 1777562524 | 26.67° C | 14% | 5020.1 hPa | 0 mm | - | - | - |
| 1777562224 | 26.11° C | 15% | 5020.2 hPa | 0 mm | - | - | - |
| 1777561924 | 25.56° C | 15% | 5020.1 hPa | 0 mm | - | - | - |
| 1777561628 | 26.11° C | 14% | 5020.2 hPa | 0 mm | - | - | - |
| 1777561624 | 26.11° C | 14% | 5020.2 hPa | 0 mm | - | - | - |
| 1777561324 | 26.11° C | 15% | 5020.2 hPa | 0 mm | - | - | - |
* Rain latest hour (hover to see other rain measurements)
** Current wind speed in m/s (hover to see current wind gust speed)